User: anonymous
Location: Oshawa
(43.9000°N, 78.8670°W)
Time: 14:04:19
(UTC-04:00)
Language:

Cosmos 839 Rocket - Orbit

View from above orbital plane
View from above orbital plane
View from above satellite
View from above satellite

Ground track
Ground track

The orbit data is extracted from the following two-line orbital elements,

1 09013U 76067B   14236.40344304 -.00000033  00000-0  72738-4 0  5340
2 09013 065.8655 201.8581 0706485 116.0625 040.8384 12.35304395719690
Epoch (UTC): 24 August 2014 09:40:57
Eccentricity: 0.0706485
inclination: 65.8655°
perigee height: 968 km
apogee height: 2085 km
right ascension of ascending node: 201.8581°
argument of perigee: 116.0625°
revolutions per day: 12.35304395
mean anomaly at epoch: 40.8384°
orbit number at epoch: 71969

The dashed part of the orbit path shows where the satellite is in the earth's shadow,  

DLR